• In Hungary
  • List of Countries
  • For 7 days
  • Water Temperature
  • Satellite Maps
  • Weather Map
  • News
  • Weather Widgets
  • user-avatar
    Login

    Hourly Weather Podshibalovka

    Today, 20 October, Saturday

    Time Temperature Precipitation Wind Pressure Humidity
    00:00 +10°C° 0 mm 4 mps 755 mmHg 48%
    01:00 +10°C° 0 mm 4 mps 755 mmHg 48%
    02:00 +8°C° 0 mm 4 mps 755 mmHg 48%
    03:00 +8°C° 0 mm 4 mps 754 mmHg 48%
    04:00 +8°C° 0 mm 4 mps 754 mmHg 49%
    05:00 +7°C° 0 mm 4 mps 754 mmHg 50%
    06:00 +7°C° 0 mm 4 mps 754 mmHg 51%
    07:00 +8°C° 0 mm 4 mps 753 mmHg 50%
    08:00 +9°C° 0 mm 5 mps 753 mmHg 48%
    09:00 +12°C° 0 mm 5 mps 753 mmHg 46%
    10:00 +13°C° 0 mm 5 mps 753 mmHg 45%
    11:00 +14°C° 0 mm 5 mps 753 mmHg 44%
    12:00 +16°C° 0 mm 5 mps 753 mmHg 43%
    13:00 +16°C° 0 mm 5 mps 753 mmHg 44%
    14:00 +16°C° 0 mm 5 mps 753 mmHg 45%
    15:00 +17°C° 0 mm 4 mps 753 mmHg 46%
    16:00 +15°C° 0 mm 4 mps 753 mmHg 52%
    17:00 +14°C° 0 mm 3 mps 753 mmHg 58%
    18:00 +14°C° 0 mm 2 mps 753 mmHg 63%
    19:00 +13°C° 0 mm 2 mps 753 mmHg 66%
    20:00 +13°C° 0 mm 2 mps 753 mmHg 70%
    21:00 +12°C° 0 mm 2 mps 753 mmHg 73%
    22:00 +12°C° 0 mm 2 mps 754 mmHg 76%
    23:00 +10°C° 0 mm 2 mps 754 mmHg 78%

    Tomorrow, 21 October, Sunday

    Time Temperature Precipitation Wind Pressure Humidity
    00:00 +10°C° 0 mm 3 mps 754 mmHg 81%
    01:00 +9°C° 0 mm 3 mps 754 mmHg 82%
    02:00 +9°C° 0 mm 3 mps 754 mmHg 84%
    03:00 +8°C° 0 mm 3 mps 755 mmHg 85%
    04:00 +8°C° 0 mm 3 mps 755 mmHg 85%
    05:00 +7°C° 0 mm 3 mps 755 mmHg 86%
    06:00 +7°C° 0 mm 3 mps 755 mmHg 87%
    07:00 +7°C° 0 mm 3 mps 756 mmHg 81%
    08:00 +8°C° 0 mm 3 mps 756 mmHg 76%
    09:00 +9°C° 0 mm 3 mps 756 mmHg 70%
    10:00 +10°C° 0 mm 3 mps 757 mmHg 64%
    11:00 +11°C° 0 mm 3 mps 757 mmHg 57%
    12:00 +13°C° 0 mm 4 mps 757 mmHg 50%
    13:00 +13°C° 0 mm 3 mps 757 mmHg 49%
    14:00 +13°C° 0 mm 3 mps 757 mmHg 48%
    15:00 +13°C° 0 mm 3 mps 757 mmHg 47%
    16:00 +11°C° 0 mm 3 mps 757 mmHg 51%
    17:00 +10°C° 0 mm 3 mps 758 mmHg 55%
    18:00 +9°C° 0 mm 3 mps 758 mmHg 59%
    19:00 +9°C° 0 mm 3 mps 758 mmHg 60%
    20:00 +8°C° 0 mm 3 mps 758 mmHg 61%
    21:00 +8°C° 0 mm 3 mps 759 mmHg 61%
    22:00 +8°C° 0 mm 3 mps 759 mmHg 63%
    23:00 +7°C° 0 mm 3 mps 759 mmHg 64%

    Day after tomorrow, 22 October, Monday

    Time Temperature Precipitation Wind Pressure Humidity
    00:00 +7°C° 0 mm 3 mps 759 mmHg 65%
    01:00 +7°C° 0 mm 3 mps 760 mmHg 67%
    02:00 +5°C° 0 mm 3 mps 760 mmHg 70%
    03:00 +5°C° 0 mm 3 mps 760 mmHg 72%
    04:00 +5°C° 0 mm 3 mps 760 mmHg 73%
    05:00 +5°C° 0 mm 3 mps 760 mmHg 74%
    06:00 +4°C° 0 mm 3 mps 760 mmHg 74%
    07:00 +5°C° 0 mm 3 mps 761 mmHg 71%
    08:00 +6°C° 0 mm 4 mps 761 mmHg 67%
    09:00 +7°C° 0 mm 4 mps 761 mmHg 64%
    10:00 +8°C° 0 mm 4 mps 761 mmHg 58%
    11:00 +10°C° 0 mm 4 mps 761 mmHg 52%
    12:00 +11°C° 0 mm 4 mps 761 mmHg 46%
    13:00 +11°C° 0 mm 3 mps 761 mmHg 45%
    14:00 +11°C° 0 mm 3 mps 761 mmHg 43%
    15:00 +11°C° 0 mm 3 mps 760 mmHg 42%
    16:00 +10°C° 0 mm 3 mps 760 mmHg 46%
    17:00 +9°C° 0 mm 3 mps 761 mmHg 49%
    18:00 +8°C° 0 mm 2 mps 761 mmHg 53%
    19:00 +7°C° 0 mm 2 mps 761 mmHg 55%
    20:00 +7°C° 0 mm 3 mps 761 mmHg 57%
    21:00 +5°C° 0 mm 3 mps 761 mmHg 59%
    22:00 +5°C° 0 mm 3 mps 760 mmHg 60%
    23:00 +4°C° 0 mm 3 mps 760 mmHg 61%

    23 October, Tuesday

    Time Temperature Precipitation Wind Pressure Humidity
    00:00 +4°C° 0 mm 3 mps 760 mmHg 63%
    01:00 +4°C° 0 mm 3 mps 760 mmHg 64%
    02:00 +3°C° 0 mm 3 mps 760 mmHg 65%
    03:00 +3°C° 0 mm 3 mps 759 mmHg 65%
    04:00 +3°C° 0 mm 3 mps 759 mmHg 66%
    05:00 +3°C° 0 mm 3 mps 759 mmHg 66%
    06:00 +2°C° 0 mm 3 mps 759 mmHg 67%
    07:00 +4°C° 0 mm 3 mps 759 mmHg 61%
    08:00 +5°C° 0 mm 4 mps 758 mmHg 56%
    09:00 +6°C° 0 mm 4 mps 758 mmHg 51%
    10:00 +8°C° 0 mm 4 mps 758 mmHg 46%
    11:00 +9°C° 0 mm 5 mps 757 mmHg 41%
    12:00 +10°C° 0 mm 5 mps 757 mmHg 37%
    13:00 +12°C° 0 mm 5 mps 756 mmHg 37%
    14:00 +12°C° 0 mm 5 mps 755 mmHg 37%
    15:00 +12°C° 0 mm 5 mps 755 mmHg 37%
    16:00 +10°C° 0 mm 5 mps 754 mmHg 40%
    17:00 +10°C° 0 mm 5 mps 754 mmHg 43%
    18:00 +9°C° 0 mm 5 mps 753 mmHg 46%
    19:00 +9°C° 0 mm 5 mps 753 mmHg 48%
    20:00 +10°C° 0 mm 5 mps 752 mmHg 50%
    21:00 +10°C° 0 mm 6 mps 752 mmHg 52%
    22:00 +10°C° 0 mm 5 mps 751 mmHg 53%
    23:00 +10°C° 0 mm 5 mps 750 mmHg 53%

    24 October, Wednesday

    Time Temperature Precipitation Wind Pressure Humidity
    00:00 +10°C° 0 mm 5 mps 750 mmHg 53%
    01:00 +10°C° 0 mm 5 mps 749 mmHg 53%
    02:00 +11°C° 0 mm 6 mps 749 mmHg 52%
    03:00 +11°C° 0 mm 6 mps 748 mmHg 52%
    04:00 +11°C° 0.1 mm 6 mps 748 mmHg 54%
    05:00 +10°C° 0.1 mm 6 mps 747 mmHg 56%
    06:00 +10°C° 0.1 mm 6 mps 747 mmHg 57%
    07:00 +11°C° 0.2 mm 6 mps 747 mmHg 59%
    08:00 +11°C° 0.2 mm 6 mps 747 mmHg 60%
    09:00 +11°C° 0.2 mm 6 mps 747 mmHg 62%
    10:00 +13°C° 0 mm 6 mps 746 mmHg 60%
    11:00 +14°C° 0 mm 6 mps 746 mmHg 58%
    12:00 +16°C° 0 mm 7 mps 746 mmHg 56%
    13:00 +16°C° 0 mm 6 mps 746 mmHg 55%
    14:00 +16°C° 0 mm 6 mps 745 mmHg 54%
    15:00 +15°C° 0 mm 6 mps 745 mmHg 53%
    16:00 +15°C° 0 mm 5 mps 745 mmHg 58%
    17:00 +14°C° 0 mm 4 mps 745 mmHg 63%
    18:00 +13°C° 0 mm 3 mps 745 mmHg 67%
    19:00 +12°C° 0 mm 3 mps 745 mmHg 72%
    20:00 +12°C° 0 mm 3 mps 745 mmHg 76%
    21:00 +11°C° 0 mm 4 mps 745 mmHg 81%
    22:00 +12°C° 0 mm 4 mps 744 mmHg 82%
    23:00 +12°C° 0 mm 4 mps 744 mmHg 83%

    25 October, Thursday

    Time Temperature Precipitation Wind Pressure Humidity
    00:00 +12°C° 0 mm 5 mps 744 mmHg 84%
    01:00 +12°C° 0 mm 5 mps 743 mmHg 83%
    02:00 +11°C° 0 mm 6 mps 742 mmHg 82%
    03:00 +11°C° 0 mm 6 mps 742 mmHg 80%
    04:00 +12°C° 0.1 mm 7 mps 741 mmHg 75%
    05:00 +12°C° 0.1 mm 7 mps 741 mmHg 69%
    06:00 +12°C° 0.1 mm 8 mps 740 mmHg 64%
    07:00 +13°C° 0 mm 9 mps 740 mmHg 59%
    08:00 +13°C° 0 mm 10 mps 739 mmHg 55%
    09:00 +14°C° 0 mm 10 mps 739 mmHg 50%
    10:00 +16°C° 0 mm 11 mps 738 mmHg 46%
    11:00 +18°C° 0 mm 11 mps 738 mmHg 41%
    12:00 +19°C° 0 mm 11 mps 737 mmHg 36%
    13:00 +19°C° 0 mm 11 mps 737 mmHg 38%
    14:00 +21°C° 0 mm 10 mps 737 mmHg 39%
    15:00 +21°C° 0 mm 9 mps 737 mmHg 40%
    16:00 +18°C° 0 mm 7 mps 737 mmHg 47%
    17:00 +17°C° 0 mm 5 mps 737 mmHg 55%
    18:00 +17°C° 0 mm 4 mps 737 mmHg 62%
    19:00 +15°C° 0 mm 4 mps 737 mmHg 67%
    20:00 +14°C° 0 mm 3 mps 737 mmHg 72%
    21:00 +13°C° 0 mm 3 mps 737 mmHg 77%
    22:00 +12°C° 0.1 mm 4 mps 737 mmHg 78%
    23:00 +11°C° 0.1 mm 4 mps 737 mmHg 80%
    Show more